QPF
0.00 0.00 0.00 0.01 0.01 0.01 0.01 0.02 0.02 0.01 0.01 0.01 0.01 0.01 0.01 0.00 0.00 0.00 0.00 0.01 0.01 0.01 0.01 0.01 0.01 0.01 0.01 0.01 0.01 0.00 0.00 0.00 0.00 0.00 0.01 0.01 0.02 0.01 0.01 0.01 0.00 0.00 0.00
0.00 0.00 0.00 0.00 0.01 0.01 0.01 0.02 0.01 0.00 0.01 0.01 0.01 0.00 0.00 0.00 0.00 0.00 0.00 0.01 0.00 0.00 0.00 0.00 0.00 0.00 0.00 0.01 0.01 0.00 0.00 0.00 0.00 0.00 0.00 0.00 0.01 0.01 0.01 0.00 0.01 0.01 0.01
0.00 0.00 0.00 0.00 0.01 0.01 0.01 0.01 0.01 0.00 0.01 0.01 0.00 0.00 0.00 0.00 0.00 0.00 0.00 0.00 0.00 0.00 0.00 0.00 0.00 0.00 0.00 0.00 0.00 0.00 0.00 0.00 0.00 0.00 0.00 0.00 0.00 0.01 0.00 0.00 0.00 0.01 0.01
0.00 0.00 0.00 0.00 0.00 0.01 0.01 0.01 0.01 0.00 0.01 0.01 0.00 0.00 0.00 0.00 0.00 0.00 0.00 0.00 0.00 0.00 0.00 0.00 0.00 0.00 0.00 0.00 0.00 0.00 0.00 0.00 0.00 0.00 0.00 0.00 0.00 0.00 0.00 0.00 0.00 0.00 0.00
0.00 0.00 0.00 0.00 0.00 0.01 0.01 0.01 0.01 0.00 0.01 0.01 0.00 0.00 0.00 0.00 0.00 0.00 0.00 0.00 0.00 0.00 0.00 0.00 0.00 0.00 0.00 0.00 0.00 0.00 0.00 0.00 0.00 0.00 0.00 0.00 0.00 0.00 0.00 0.00 0.00 0.00 0.00
0.00 0.00 0.00 0.00 0.01 0.01 0.01 0.01 0.00 0.00 0.01 0.01 0.00 0.00 0.00 0.00 0.00 0.00 0.00 0.00 0.00 0.00 0.00 0.00 0.00 0.00 0.00 0.00 0.00 0.00 0.00 0.00 0.00 0.00 0.00 0.00 0.00 0.00 0.00 0.00 0.00 0.00 0.00
0.00 0.00 0.00 0.00 0.01 0.01 0.00 0.00 0.00 0.00 0.01 0.01 0.00 0.00 0.00 0.00 0.00 0.00 0.00 0.00 0.00 0.00 0.00 0.00 0.00 0.00 0.00 0.00 0.00 0.00 0.00 0.00 0.00 0.00 0.00 0.00 0.00 0.00 0.00 0.00 0.00 0.00 0.00
0.00 0.00 0.00 0.00 0.01 0.01 0.01 0.00 0.00 0.00 0.01 0.01 0.00 0.00 0.00 0.00 0.00 0.00 0.00 0.00 0.00 0.00 0.00 0.00 0.00 0.00 0.00 0.00 0.00 0.00 0.00 0.00 0.00 0.00 0.00 0.00 0.00 0.00 0.00 0.00 0.00 0.00 0.00
0.00 0.00 0.00 0.00 0.00 0.00 0.01 0.00 0.00 0.00 0.01 0.00 0.00 0.00 0.00 0.00 0.00 0.00 0.00 0.00 0.00 0.00 0.00 0.00 0.00 0.00 0.00 0.00 0.00 0.00 0.00 0.00 0.00 0.00 0.00 0.00 0.00 0.00 0.00 0.00 0.00 0.00 0.00
0.00 0.00 0.00 0.00 0.00 0.00 0.00 0.00 0.00 0.00 0.00 0.00 0.00 0.00 0.00 0.00 0.00 0.00 0.00 0.00 0.00 0.00 0.00 0.00 0.00 0.00 0.00 0.00 0.00 0.00 0.00 0.00 0.00 0.00 0.00 0.00 0.00 0.00 0.00 0.00 0.00 0.00 0.00
0.00 0.00 0.00 0.00 0.00 0.00 0.00 0.00 0.00 0.00 0.00 0.00 0.00 0.00 0.00 0.00 0.00 0.00 0.00 0.00 0.00 0.00 0.00 0.00 0.00 0.00 0.00 0.00 0.00 0.00 0.00 0.00 0.00 0.00 0.00 0.00 0.00 0.00 0.00 0.00 0.00 0.01 0.01
0.00 0.00 0.00 0.00 0.00 0.00 0.00 0.00 0.00 0.00 0.00 0.00 0.00 0.00 0.00 0.00 0.00 0.00 0.00 0.00 0.00 0.00 0.00 0.00 0.00 0.00 0.00 0.00 0.00 0.00 0.00 0.00 0.00 0.00 0.00 0.00 0.00 0.00 0.00 0.00 0.00 0.01 0.01
0.00 0.00 0.00 0.00 0.00 0.00 0.00 0.00 0.00 0.00 0.00 0.00 0.00 0.00 0.00 0.00 0.00 0.00 0.00 0.00 0.00 0.00 0.00 0.00 0.00 0.00 0.00 0.00 0.00 0.00 0.00 0.00 0.00 0.00 0.00 0.00 0.00 0.00 0.00 0.00 0.00 0.01 0.01
0.00 0.00 0.00 0.00 0.00 0.00 0.00 0.00 0.00 0.00 0.00 0.00 0.00 0.00 0.00 0.00 0.00 0.00 0.00 0.00 0.00 0.00 0.00 0.00 0.00 0.00 0.00 0.00 0.00 0.00 0.00 0.00 0.00 0.00 0.00 0.00 0.00 0.00 0.00 0.00 0.00 0.00 0.00
0.00 0.00 0.00 0.00 0.00 0.00 0.00 0.00 0.00 0.00 0.00 0.00 0.00 0.00 0.00 0.00 0.00 0.00 0.00 0.00 0.00 0.00 0.00 0.00 0.00 0.00 0.00 0.00 0.00 0.00 0.00 0.00 0.00 0.00 0.00 0.00 0.00 0.00 0.00 0.00 0.00 0.00 0.00
0.00 0.00 0.00 0.00 0.00 0.00 0.00 0.00 0.00 0.00 0.00 0.00 0.00 0.00 0.00 0.00 0.00 0.00 0.00 0.00 0.00 0.00 0.00 0.00 0.00 0.00 0.00 0.00 0.00 0.00 0.00 0.00 0.00 0.00 0.00 0.00 0.00 0.00 0.00 0.00 0.00 0.00 0.00
0.00 0.00 0.00 0.00 0.00 0.00 0.00 0.00 0.00 0.00 0.00 0.00 0.00 0.00 0.00 0.00 0.00 0.00 0.00 0.00 0.00 0.00 0.00 0.00 0.00 0.00 0.00 0.00 0.00 0.00 0.00 0.00 0.00 0.00 0.00 0.00 0.00 0.00 0.00 0.00 0.00 0.00 0.00
0.00 0.00 0.00 0.00 0.00 0.00 0.00 0.00 0.00 0.00 0.00 0.00 0.00 0.00 0.00 0.00 0.00 0.00 0.00 0.00 0.00 0.00 0.00 0.00 0.00 0.00 0.00 0.00 0.00 0.00 0.00 0.00 0.00 0.00 0.00 0.00 0.00 0.00 0.00 0.00 0.00 0.00 0.00
0.00 0.00 0.00 0.00 0.00 0.00 0.00 0.01 0.01 0.01 0.01 0.01 0.01 0.00 0.00 0.00 0.00 0.00 0.00 0.00 0.00 0.00 0.00 0.00 0.00 0.00 0.00 0.00 0.00 0.00 0.00 0.00 0.00 0.00 0.00 0.00 0.00 0.00 0.00 0.00 0.00 0.00 0.00
0.00 0.00 0.00 0.00 0.00 0.00 0.00 0.01 0.01 0.01 0.01 0.00 0.00 0.00 0.00 0.00 0.00 0.00 0.00 0.00 0.00 0.00 0.00 0.00 0.00 0.00 0.00 0.00 0.00 0.00 0.00 0.00 0.00 0.00 0.00 0.00 0.00 0.00 0.00 0.00 0.00 0.00 0.00
0.00 0.00 0.00 0.00 0.00 0.00 0.00 0.01 0.01 0.01 0.01 0.00 0.00 0.00 0.00 0.00 0.00 0.00 0.00 0.00 0.00 0.00 0.00 0.00 0.00 0.00 0.00 0.00 0.00 0.00 0.00 0.00 0.00 0.00 0.00 0.00 0.00 0.00 0.00 0.00 0.00 0.00 0.00
0.00 0.00 0.00 0.00 0.00 0.00 0.00 0.00 0.00 0.00 0.00 0.00 0.00 0.00 0.00 0.00 0.00 0.00 0.00 0.00 0.00 0.00 0.00 0.00 0.00 0.00 0.00 0.00 0.00 0.00 0.00 0.00 0.00 0.00 0.00 0.00 0.00 0.00 0.00 0.00 0.00 0.00 0.00
0.00 0.00 0.00 0.00 0.00 0.00 0.00 0.00 0.00 0.00 0.00 0.00 0.00 0.00 0.00 0.00 0.00 0.00 0.00 0.00 0.00 0.00 0.00 0.00 0.00 0.00 0.00 0.00 0.00 0.00 0.00 0.00 0.00 0.00 0.00 0.00 0.00 0.00 0.00 0.00 0.00 0.00 0.00
0.00 0.00 0.00 0.00 0.00 0.00 0.00 0.00 0.00 0.00 0.00 0.00 0.00 0.00 0.00 0.00 0.00 0.00 0.00 0.00 0.00 0.00 0.00 0.00 0.00 0.00 0.00 0.00 0.00 0.00 0.00 0.00 0.00 0.00 0.00 0.00 0.00 0.00 0.00 0.00 0.00 0.00 0.00
0.00 0.00 0.00 0.00 0.00 0.00 0.00 0.00 0.00 0.00 0.00 0.00 0.00 0.00 0.00 0.00 0.00 0.00 0.00 0.00 0.00 0.00 0.00 0.00 0.00 0.00 0.00 0.00 0.00 0.00 0.00 0.00 0.00 0.00 0.00 0.00 0.00 0.00 0.00 0.00 0.00 0.00 0.00
0.00 0.00 0.00 0.00 0.00 0.00 0.00 0.00 0.00 0.00 0.00 0.00 0.00 0.00 0.00 0.00 0.00 0.00 0.00 0.00 0.00 0.00 0.00 0.00 0.00 0.00 0.00 0.00 0.00 0.00 0.00 0.00 0.00 0.00 0.00 0.00 0.00 0.00 0.00 0.00 0.00 0.00 0.00
MSLP
1015.67 1015.77 1015.91 1016.13 1016.45 1016.83 1017.25 1017.64 1017.97 1018.21 1018.36 1018.45 1018.50 1018.55 1018.62 1018.71 1018.82 1018.93 1019.02 1019.09 1019.12 1019.14 1019.16 1019.21 1019.28 1019.37 1019.47 1019.55 1019.58 1019.55 1019.47 1019.33 1019.18 1019.04 1018.93 1018.86 1018.84 1018.84 1018.86 1018.87 1018.84 1018.79 1018.71
1015.24 1015.40 1015.63 1015.98 1016.41 1016.90 1017.38 1017.80 1018.14 1018.36 1018.50 1018.57 1018.65 1018.74 1018.87 1019.05 1019.24 1019.42 1019.56 1019.65 1019.69 1019.71 1019.73 1019.76 1019.82 1019.90 1019.99 1020.05 1020.06 1020.02 1019.91 1019.77 1019.62 1019.48 1019.39 1019.34 1019.34 1019.36 1019.39 1019.39 1019.36 1019.30 1019.21
1014.84 1015.05 1015.37 1015.83 1016.37 1016.96 1017.51 1017.98 1018.32 1018.55 1018.69 1018.78 1018.88 1019.02 1019.21 1019.45 1019.70 1019.93 1020.10 1020.20 1020.24 1020.24 1020.23 1020.24 1020.27 1020.33 1020.39 1020.44 1020.43 1020.38 1020.27 1020.14 1020.00 1019.89 1019.82 1019.81 1019.82 1019.85 1019.87 1019.87 1019.83 1019.75 1019.65
1014.52 1014.78 1015.19 1015.73 1016.37 1017.04 1017.65 1018.16 1018.53 1018.77 1018.92 1019.03 1019.16 1019.35 1019.59 1019.87 1020.16 1020.41 1020.59 1020.68 1020.71 1020.68 1020.64 1020.62 1020.63 1020.66 1020.70 1020.73 1020.71 1020.66 1020.56 1020.45 1020.34 1020.26 1020.22 1020.23 1020.26 1020.29 1020.29 1020.26 1020.19 1020.10 1019.99
1014.33 1014.63 1015.10 1015.72 1016.42 1017.14 1017.80 1018.33 1018.72 1018.98 1019.15 1019.29 1019.45 1019.66 1019.93 1020.24 1020.54 1020.79 1020.96 1021.04 1021.04 1021.00 1020.94 1020.90 1020.89 1020.91 1020.94 1020.95 1020.94 1020.89 1020.81 1020.71 1020.63 1020.58 1020.57 1020.59 1020.62 1020.63 1020.61 1020.55 1020.45 1020.33 1020.21
1014.27 1014.62 1015.13 1015.79 1016.53 1017.27 1017.94 1018.48 1018.88 1019.15 1019.34 1019.50 1019.68 1019.92 1020.21 1020.52 1020.82 1021.06 1021.21 1021.27 1021.26 1021.21 1021.14 1021.10 1021.10 1021.11 1021.14 1021.16 1021.15 1021.10 1021.03 1020.96 1020.89 1020.86 1020.86 1020.88 1020.89 1020.88 1020.83 1020.72 1020.58 1020.43 1020.30
1014.31 1014.70 1015.24 1015.91 1016.65 1017.39 1018.04 1018.57 1018.97 1019.24 1019.45 1019.64 1019.85 1020.11 1020.40 1020.71 1020.99 1021.21 1021.34 1021.39 1021.38 1021.33 1021.29 1021.27 1021.28 1021.31 1021.35 1021.37 1021.36 1021.31 1021.25 1021.17 1021.12 1021.09 1021.08 1021.09 1021.08 1021.04 1020.94 1020.80 1020.62 1020.44 1020.29
1014.41 1014.83 1015.39 1016.05 1016.77 1017.46 1018.08 1018.58 1018.97 1019.26 1019.48 1019.71 1019.95 1020.23 1020.53 1020.83 1021.10 1021.30 1021.41 1021.45 1021.45 1021.42 1021.40 1021.42 1021.46 1021.52 1021.57 1021.59 1021.58 1021.52 1021.44 1021.36 1021.29 1021.25 1021.23 1021.22 1021.19 1021.11 1020.98 1020.80 1020.60 1020.39 1020.22
1014.50 1014.95 1015.51 1016.15 1016.82 1017.47 1018.04 1018.51 1018.89 1019.19 1019.45 1019.71 1020.00 1020.31 1020.63 1020.93 1021.18 1021.36 1021.46 1021.50 1021.51 1021.50 1021.52 1021.56 1021.64 1021.71 1021.78 1021.79 1021.76 1021.69 1021.59 1021.48 1021.39 1021.34 1021.31 1021.28 1021.23 1021.14 1020.99 1020.79 1020.56 1020.34 1020.15
1014.51 1014.98 1015.54 1016.15 1016.78 1017.38 1017.90 1018.35 1018.73 1019.06 1019.37 1019.68 1020.02 1020.37 1020.72 1021.02 1021.27 1021.43 1021.52 1021.56 1021.57 1021.58 1021.62 1021.69 1021.79 1021.88 1021.93 1021.94 1021.89 1021.79 1021.66 1021.53 1021.42 1021.35 1021.32 1021.29 1021.24 1021.15 1021.01 1020.80 1020.57 1020.33 1020.12
1014.40 1014.89 1015.45 1016.04 1016.63 1017.19 1017.69 1018.13 1018.52 1018.89 1019.26 1019.64 1020.04 1020.44 1020.81 1021.13 1021.37 1021.52 1021.60 1021.62 1021.63 1021.65 1021.70 1021.78 1021.88 1021.96 1022.01 1021.99 1021.91 1021.79 1021.63 1021.49 1021.37 1021.30 1021.27 1021.26 1021.23 1021.17 1021.05 1020.86 1020.63 1020.39 1020.16
1014.16 1014.67 1015.23 1015.81 1016.38 1016.92 1017.41 1017.86 1018.28 1018.70 1019.13 1019.58 1020.04 1020.48 1020.88 1021.21 1021.45 1021.59 1021.65 1021.66 1021.66 1021.67 1021.72 1021.79 1021.88 1021.95 1021.97 1021.94 1021.84 1021.69 1021.52 1021.37 1021.26 1021.20 1021.19 1021.21 1021.23 1021.20 1021.12 1020.97 1020.77 1020.54 1020.30
1013.79 1014.33 1014.90 1015.48 1016.05 1016.58 1017.08 1017.55 1018.01 1018.48 1018.97 1019.48 1019.99 1020.47 1020.89 1021.23 1021.46 1021.59 1021.64 1021.64 1021.63 1021.63 1021.67 1021.72 1021.79 1021.84 1021.84 1021.79 1021.67 1021.51 1021.35 1021.20 1021.10 1021.07 1021.09 1021.15 1021.22 1021.25 1021.22 1021.12 1020.96 1020.75 1020.52
1013.32 1013.88 1014.47 1015.07 1015.65 1016.20 1016.72 1017.23 1017.73 1018.24 1018.78 1019.33 1019.86 1020.36 1020.79 1021.13 1021.36 1021.49 1021.54 1021.54 1021.52 1021.52 1021.54 1021.59 1021.63 1021.66 1021.65 1021.58 1021.46 1021.31 1021.15 1021.02 1020.95 1020.94 1021.00 1021.10 1021.21 1021.29 1021.32 1021.28 1021.17 1020.99 1020.78
1012.77 1013.36 1013.98 1014.60 1015.21 1015.79 1016.35 1016.89 1017.43 1017.98 1018.54 1019.09 1019.63 1020.13 1020.55 1020.89 1021.12 1021.26 1021.32 1021.33 1021.34 1021.35 1021.37 1021.41 1021.46 1021.48 1021.46 1021.39 1021.28 1021.14 1021.00 1020.89 1020.84 1020.85 1020.93 1021.05 1021.19 1021.32 1021.40 1021.42 1021.36 1021.23 1021.04
1012.18 1012.79 1013.44 1014.11 1014.75 1015.38 1015.98 1016.56 1017.12 1017.68 1018.24 1018.78 1019.30 1019.77 1020.18 1020.50 1020.74 1020.91 1021.00 1021.06 1021.11 1021.15 1021.20 1021.26 1021.31 1021.34 1021.33 1021.27 1021.18 1021.06 1020.94 1020.85 1020.80 1020.82 1020.90 1021.03 1021.18 1021.33 1021.44 1021.50 1021.50 1021.42 1021.28
1011.57 1012.21 1012.89 1013.59 1014.29 1014.96 1015.60 1016.22 1016.81 1017.37 1017.91 1018.42 1018.90 1019.33 1019.71 1020.03 1020.29 1020.49 1020.65 1020.77 1020.88 1020.99 1021.09 1021.18 1021.26 1021.31 1021.31 1021.28 1021.20 1021.11 1021.00 1020.92 1020.87 1020.87 1020.93 1021.04 1021.17 1021.31 1021.44 1021.53 1021.57 1021.55 1021.47
1010.95 1011.61 1012.33 1013.07 1013.81 1014.54 1015.23 1015.89 1016.50 1017.06 1017.58 1018.05 1018.48 1018.87 1019.22 1019.54 1019.83 1020.08 1020.31 1020.52 1020.71 1020.89 1021.06 1021.20 1021.31 1021.39 1021.42 1021.41 1021.36 1021.29 1021.20 1021.11 1021.05 1021.03 1021.04 1021.10 1021.19 1021.30 1021.42 1021.52 1021.59 1021.62 1021.59
1010.36 1011.03 1011.77 1012.54 1013.34 1014.12 1014.87 1015.57 1016.21 1016.78 1017.27 1017.71 1018.10 1018.46 1018.79 1019.11 1019.43 1019.75 1020.05 1020.35 1020.63 1020.89 1021.12 1021.32 1021.47 1021.58 1021.64 1021.66 1021.64 1021.59 1021.51 1021.42 1021.34 1021.28 1021.24 1021.23 1021.26 1021.32 1021.40 1021.50 1021.59 1021.65 1021.66
1009.80 1010.48 1011.22 1012.03 1012.87 1013.71 1014.51 1015.27 1015.94 1016.53 1017.03 1017.45 1017.81 1018.15 1018.47 1018.81 1019.16 1019.53 1019.91 1020.29 1020.65 1020.98 1021.27 1021.51 1021.70 1021.84 1021.93 1021.98 1021.99 1021.96 1021.91 1021.83 1021.73 1021.63 1021.53 1021.45 1021.41 1021.40 1021.43 1021.50 1021.58 1021.66 1021.70
1009.31 1009.98 1010.73 1011.55 1012.42 1013.30 1014.16 1014.97 1015.70 1016.32 1016.83 1017.26 1017.63 1017.96 1018.29 1018.65 1019.03 1019.45 1019.89 1020.33 1020.75 1021.13 1021.46 1021.73 1021.95 1022.12 1022.24 1022.32 1022.37 1022.38 1022.36 1022.30 1022.19 1022.07 1021.92 1021.78 1021.66 1021.58 1021.54 1021.55 1021.60 1021.67 1021.72
1008.93 1009.57 1010.31 1011.13 1012.00 1012.92 1013.82 1014.68 1015.45 1016.12 1016.67 1017.13 1017.51 1017.87 1018.22 1018.60 1019.02 1019.48 1019.95 1020.43 1020.89 1021.29 1021.64 1021.93 1022.17 1022.36 1022.51 1022.64 1022.74 1022.80 1022.82 1022.79 1022.71 1022.57 1022.40 1022.20 1022.01 1021.85 1021.74 1021.68 1021.67 1021.70 1021.72
1008.67 1009.29 1009.99 1010.78 1011.64 1012.56 1013.48 1014.36 1015.18 1015.89 1016.50 1017.00 1017.43 1017.82 1018.21 1018.63 1019.07 1019.55 1020.05 1020.54 1021.01 1021.42 1021.77 1022.07 1022.32 1022.53 1022.72 1022.89 1023.05 1023.18 1023.26 1023.29 1023.24 1023.12 1022.93 1022.70 1022.45 1022.21 1022.01 1021.87 1021.79 1021.75 1021.72
1008.57 1009.15 1009.80 1010.53 1011.34 1012.22 1013.13 1014.02 1014.86 1015.61 1016.26 1016.82 1017.31 1017.75 1018.19 1018.64 1019.11 1019.61 1020.12 1020.62 1021.07 1021.48 1021.83 1022.13 1022.38 1022.62 1022.85 1023.07 1023.30 1023.50 1023.65 1023.74 1023.75 1023.65 1023.47 1023.21 1022.92 1022.62 1022.34 1022.10 1021.93 1021.80 1021.71
1008.61 1009.14 1009.72 1010.37 1011.11 1011.91 1012.76 1013.63 1014.46 1015.23 1015.93 1016.54 1017.09 1017.59 1018.08 1018.58 1019.09 1019.61 1020.12 1020.62 1021.07 1021.46 1021.81 1022.11 1022.38 1022.63 1022.90 1023.18 1023.47 1023.74 1023.96 1024.12 1024.18 1024.12 1023.95 1023.69 1023.36 1023.01 1022.66 1022.34 1022.07 1021.85 1021.68
1008.76 1009.25 1009.74 1010.29 1010.92 1011.62 1012.39 1013.19 1013.99 1014.76 1015.48 1016.14 1016.75 1017.31 1017.87 1018.42 1018.96 1019.51 1020.04 1020.53 1020.98 1021.38 1021.72 1022.02 1022.31 1022.60 1022.90 1023.22 1023.56 1023.88 1024.16 1024.37 1024.48 1024.46 1024.31 1024.06 1023.72 1023.32 1022.91 1022.52 1022.17 1021.87 1021.61
Thickness
5745 5744 5740 5738 5736 5734 5733 5731 5729 5728 5726 5725 5724 5722 5721 5720 5719 5718 5717 5716 5715 5715 5714 5713 5712 5711 5710 5709 5708 5707 5707 5706 5706 5706 5706 5706 5705 5705 5704 5704 5704 5704 5704
5749 5743 5739 5736 5734 5732 5730 5728 5726 5724 5723 5721 5719 5718 5716 5715 5714 5713 5711 5710 5709 5708 5707 5706 5705 5704 5703 5702 5701 5701 5700 5700 5700 5700 5699 5698 5698 5698 5697 5697 5697 5697 5696
5748 5742 5737 5734 5732 5730 5727 5725 5723 5721 5719 5717 5715 5713 5712 5710 5709 5707 5706 5705 5703 5702 5701 5700 5699 5698 5697 5696 5695 5694 5693 5693 5693 5694 5693 5691 5691 5691 5690 5690 5689 5689 5689
5746 5740 5736 5732 5730 5727 5724 5722 5719 5717 5715 5713 5710 5709 5707 5705 5703 5702 5700 5699 5697 5696 5695 5693 5692 5691 5690 5689 5688 5687 5687 5687 5688 5687 5686 5685 5684 5684 5684 5683 5683 5682 5682
5745 5739 5734 5730 5727 5724 5721 5718 5716 5713 5711 5708 5706 5704 5702 5700 5698 5696 5694 5693 5691 5690 5688 5687 5686 5685 5684 5683 5682 5681 5681 5681 5681 5680 5680 5678 5677 5678 5677 5676 5676 5675 5675
5743 5737 5731 5727 5724 5721 5718 5715 5712 5709 5707 5704 5701 5699 5697 5695 5693 5691 5689 5687 5685 5684 5683 5682 5680 5679 5678 5677 5676 5675 5674 5674 5674 5674 5673 5671 5670 5670 5670 5670 5669 5669 5669
5741 5735 5729 5725 5722 5718 5715 5712 5709 5705 5702 5700 5697 5694 5692 5690 5687 5685 5683 5681 5680 5678 5677 5676 5675 5673 5672 5671 5670 5669 5668 5668 5669 5668 5666 5664 5663 5664 5664 5664 5663 5663 5663
5740 5733 5726 5722 5719 5715 5712 5708 5705 5702 5699 5696 5693 5690 5687 5685 5682 5680 5677 5676 5674 5673 5672 5670 5669 5668 5666 5665 5664 5663 5663 5663 5662 5662 5660 5658 5657 5657 5658 5657 5657 5657 5657
5738 5731 5724 5720 5716 5712 5709 5705 5702 5698 5695 5692 5689 5686 5683 5680 5677 5675 5672 5670 5669 5667 5666 5664 5663 5662 5661 5660 5659 5658 5657 5657 5657 5656 5655 5651 5650 5650 5651 5651 5650 5650 5650
5736 5731 5723 5718 5714 5710 5706 5702 5699 5695 5692 5688 5684 5681 5678 5676 5673 5671 5668 5666 5664 5662 5660 5659 5658 5657 5656 5654 5653 5653 5653 5652 5652 5651 5649 5646 5644 5643 5644 5644 5644 5644 5644
5733 5730 5725 5719 5714 5709 5704 5700 5696 5692 5688 5684 5681 5678 5675 5672 5670 5667 5664 5661 5659 5657 5656 5654 5653 5652 5651 5650 5649 5648 5648 5647 5647 5646 5644 5640 5638 5637 5637 5637 5637 5637 5637
5729 5728 5726 5721 5715 5709 5704 5698 5693 5689 5685 5681 5678 5675 5671 5669 5666 5663 5660 5657 5655 5653 5651 5650 5649 5648 5647 5646 5644 5643 5642 5642 5641 5640 5637 5634 5632 5631 5630 5630 5630 5630 5630
5730 5727 5726 5721 5716 5710 5704 5697 5692 5688 5683 5679 5676 5672 5669 5666 5662 5659 5656 5653 5651 5649 5647 5645 5644 5643 5643 5642 5640 5639 5638 5636 5635 5634 5631 5628 5626 5624 5623 5623 5623 5623 5623
5730 5726 5724 5720 5714 5709 5703 5697 5692 5687 5682 5678 5674 5670 5666 5662 5658 5656 5653 5650 5647 5645 5643 5641 5640 5639 5638 5636 5635 5633 5632 5631 5629 5628 5625 5622 5620 5617 5615 5615 5615 5614 5614
5731 5726 5723 5719 5713 5707 5701 5695 5690 5685 5680 5675 5671 5666 5662 5658 5654 5651 5648 5646 5643 5640 5638 5636 5635 5633 5632 5631 5629 5627 5626 5624 5623 5621 5619 5616 5613 5610 5608 5606 5606 5605 5605
5733 5727 5722 5717 5711 5705 5699 5694 5689 5683 5677 5672 5667 5663 5659 5654 5650 5647 5644 5641 5638 5635 5633 5630 5629 5627 5625 5624 5622 5620 5619 5617 5616 5614 5612 5609 5605 5602 5599 5597 5596 5595 5594
5734 5728 5721 5715 5709 5703 5696 5691 5685 5680 5675 5669 5664 5659 5655 5650 5646 5642 5639 5636 5633 5630 5627 5625 5622 5620 5618 5616 5614 5613 5611 5609 5608 5606 5603 5601 5598 5594 5590 5587 5585 5584 5583
5734 5727 5721 5714 5707 5700 5694 5688 5682 5677 5671 5666 5660 5655 5650 5646 5641 5637 5634 5630 5627 5624 5621 5617 5615 5612 5609 5607 5605 5604 5602 5601 5599 5597 5594 5592 5589 5585 5581 5578 5575 5573 5571
5734 5727 5719 5712 5704 5698 5691 5685 5679 5673 5667 5662 5656 5651 5646 5641 5637 5632 5628 5625 5621 5617 5613 5610 5607 5604 5600 5598 5596 5595 5594 5592 5590 5588 5585 5582 5579 5575 5572 5568 5565 5563 5561
5731 5725 5717 5709 5701 5695 5688 5680 5674 5668 5663 5658 5652 5647 5642 5636 5632 5627 5623 5619 5615 5610 5606 5603 5599 5596 5592 5589 5587 5586 5585 5585 5582 5579 5575 5572 5568 5565 5561 5558 5556 5553 5550
5725 5720 5713 5705 5697 5691 5683 5676 5668 5662 5657 5652 5647 5642 5637 5631 5626 5621 5617 5612 5608 5603 5599 5595 5591 5587 5583 5580 5576 5573 5575 5576 5573 5568 5565 5561 5558 5554 5551 5548 5545 5542 5540
5719 5714 5708 5702 5694 5688 5681 5673 5666 5659 5652 5647 5641 5636 5631 5626 5621 5615 5610 5605 5600 5596 5591 5587 5582 5577 5573 5570 5565 5559 5556 5558 5559 5557 5553 5550 5547 5543 5540 5537 5534 5531 5528
5712 5707 5703 5697 5690 5683 5676 5668 5660 5652 5645 5639 5633 5629 5625 5620 5615 5609 5604 5599 5594 5589 5583 5578 5574 5568 5562 5559 5555 5548 5542 5538 5539 5542 5541 5538 5535 5531 5528 5526 5523 5520 5517
5706 5701 5696 5691 5684 5677 5670 5663 5655 5647 5640 5634 5629 5623 5618 5613 5608 5602 5597 5592 5587 5581 5575 5571 5566 5560 5554 5548 5544 5540 5535 5530 5524 5523 5526 5526 5524 5521 5518 5515 5512 5510 5507
5699 5693 5688 5683 5677 5671 5664 5657 5649 5642 5636 5630 5623 5617 5611 5606 5601 5596 5591 5585 5579 5574 5568 5563 5557 5552 5546 5540 5534 5529 5525 5520 5515 5509 5509 5511 5511 5509 5507 5505 5502 5500 5497
5689 5684 5679 5674 5669 5663 5657 5650 5644 5638 5631 5625 5618 5611 5605 5600 5594 5589 5584 5578 5572 5566 5561 5555 5549 5543 5537 5532 5526 5520 5514 5508 5503 5499 5496 5497 5498 5498 5497 5495 5493 5490 5488